Flag for Switzerland Weather past 2 weeks in Buchs, St. Gallen, Switzerland

Now
56 °F

Cool.


Feels Like: 56 °F
Forecast: 42 / 74 °F
Wind: 2 mph from Southeast

Location: Vaduz


UV Index: 3 (Moderate)

Visibility: N/A


Pressure: 30.06 "Hg

Humidity: 68%

Dew point: 45 °F

Location of BuchsLocation

Historic Weather in Buchs

°F

Buchs temperature yesterday

Maximum temperature yesterday: 68 °F (at 5:00 PM)
Minimum temperature yesterday: 45 °F (at 1:00 AM)
Average temperature yesterday: 58 °F

Past Weeks' High & Low Weather Summary

 TemperatureHumidityPressure
High69 °F (Apr 11, 4:00 PM)97% (Apr 20, 3:00 AM)30.37 "Hg (Apr 20, 3:00 AM)
Low30 °F (Apr 17, 6:00 AM)25% (Apr 17, 3:00 PM)29.61 "Hg (Apr 20, 5:00 PM)
Average51 °F64%29.99 "Hg
* Reported Apr 9 2:00 AM — Midnight between Apr 23 and Apr 24, Buchs, Weather by CustomWeather, © 2014

Note: Actual official high and low records may vary slightly from our data, if they occured in-between our weather recording intervals... More about our weather records

Advertising

Historic Weather Conditions — Data for Previous 24 hours

 ConditionsComfort  
Time TempWeatherWind HumidityBarometerVisibility
12:00 AM
Apr 24
53 °FCool.1 mph80%30.06 "HgN/A
11:00 PM
Apr 23
55 °FOvercast.No wind80%30.05 "Hg12 mi
10:00 PM56 °FCool.No wind73%30.03 "HgN/A
9:00 PM62 °FCool.1 mph60%30.00 "HgN/A
8:00 PM66 °FScattered clouds.6 mph45%29.96 "Hg16 mi
7:00 PM68 °FMild.5 mph43%29.95 "HgN/A
6:00 PM68 °FMild.6 mph48%29.95 "HgN/A
5:00 PM68 °FScattered clouds.5 mph46%29.95 "Hg6 mi
4:00 PM67 °FMild.7 mph47%29.98 "HgN/A
3:00 PM66 °FMild.8 mph50%30.00 "HgN/A
2:00 PM66 °FScattered clouds.9 mph49%30.01 "Hg6 mi
1:00 PM65 °FMild.8 mph51%30.03 "HgN/A
12:00 PM63 °FMild.6 mph50%30.06 "HgN/A
11:00 AM57 °FPartly sunny.1 mph56%30.09 "Hg9 mi
10:00 AM54 °FCool.3 mph58%30.10 "HgN/A
9:00 AM53 °FCool.3 mph66%30.11 "HgN/A
8:00 AM49 °FScattered clouds.5 mph69%30.12 "Hg7 mi
7:00 AM49 °FCool.6 mph70%30.11 "HgN/A
6:00 AM50 °FCool.5 mph69%30.09 "HgN/A
5:00 AM52 °FPassing clouds.5 mph64%30.08 "Hg9 mi
4:00 AM52 °FCool.7 mph67%30.07 "HgN/A
3:00 AM52 °FCool.6 mph68%30.07 "HgN/A
2:00 AM52 °FPassing clouds.5 mph70%30.06 "Hg9 mi
1:00 AM45 °FQuite cool.2 mph87%30.06 "HgN/A
Weather by CustomWeather, © 2014

See weather overview